This is the latest recevied weather packets stored in our database for station/object VU3ZAG-13. If no packets are shown the sender has not sent any weather packets the latest 1 day(s).
| Time | Temp. | Humidity | Pressure | Rain* | Wind** | Luminosity | Snow |
|---|---|---|---|---|---|---|---|
| 1778018980 | 31.11° C | 48% | - | 0 mm | 0.89 m/s, 293° | - | - |
| 1778018671 | 31.11° C | 48% | - | 0 mm | 0.89 m/s, 321° | - | - |
| 1778018363 | 31.11° C | 48% | - | 0 mm | 1.34 m/s, 330° | - | - |
| 1778018054 | 31.11° C | 48% | - | 0 mm | 1.34 m/s, 297° | - | - |
| 1778017746 | 31.11° C | 48% | - | 0 mm | 0.89 m/s, 315° | - | - |
| 1778017437 | 31.11° C | 48% | - | 0 mm | 1.34 m/s, 276° | - | - |
| 1778017128 | 31.11° C | 48% | - | 0 mm | 1.79 m/s, 293° | - | - |
| 1778016819 | 31.11° C | 48% | - | 0 mm | 1.34 m/s, 282° | - | - |
| 1778016510 | 31.11° C | 48% | - | 0 mm | 1.79 m/s, 277° | - | - |
| 1778016202 | 31.11° C | 48% | - | 0 mm | 1.34 m/s, 308° | - | - |
| 1778015893 | 31.11° C | 48% | - | 0 mm | 1.79 m/s, 270° | - | - |
| 1778015584 | 31.11° C | 48% | - | 0 mm | 1.79 m/s, 284° | - | - |
| 1778014349 | 31.11° C | 48% | - | 0 mm | 1.79 m/s, 288° | - | - |
| 1778014041 | 31.11° C | 49% | - | 0 mm | 1.79 m/s, 272° | - | - |
| 1778013732 | 31.11° C | 49% | - | 0 mm | 1.79 m/s, 290° | - | - |
| 1778013423 | 31.11° C | 49% | - | 0 mm | 1.34 m/s, 285° | - | - |
| 1778013115 | 31.11° C | 49% | - | 0 mm | 1.79 m/s, 297° | - | - |
| 1778012806 | 31.11° C | 50% | - | 0 mm | 1.79 m/s, 286° | - | - |
| 1778012497 | 31.11° C | 50% | - | 0 mm | 1.79 m/s, 280° | - | - |
| 1778012188 | 31.11° C | 51% | - | 0 mm | 2.24 m/s, 278° | - | - |
| 1778011879 | 31.11° C | 52% | - | 0 mm | 3.13 m/s, 276° | - | - |
| 1778011570 | 31.11° C | 53% | - | 0 mm | 1.79 m/s, 264° | - | - |
| 1778011262 | 31.11° C | 54% | - | 0 mm | 1.79 m/s, 333° | - | - |
| 1778010953 | 31.11° C | 54% | - | 0 mm | 1.79 m/s, 274° | - | - |
| 1778010645 | 31.11° C | 54% | - | 0 mm | 1.79 m/s, 268° | - | - |
* Rain since midnight (hover to see other rain measurements)
** Current wind speed in m/s (hover to see current wind gust speed)